Location: Spring Creek
(38.2870°N, 100.2160°W)
Time: 13:10:46
(UTC+00:00)

SL-19 R/B - Pass Details

Date: 08 May 2021
Orbit: 795 x 1010 km, 99.4° (Epoch: 22 June)

Event Time Altitude Azimuth Distance (km) Brightness Sun altitude
Rises 08:37:14 0° 12° (NNE) 3,544 8.5 -27.8°
Reaches altitude 10° 08:39:42 10° 12° (NNE) 2,566 7.6 -27.5°
Maximum altitude 08:45:23 81° 286° (WNW) 872 4.1 -26.9°
Enters shadow 08:45:36 79° 253° (WSW) 875 4.0 -26.9°
